Regional Weather Roundup
Issued by NWS Green Bay, WI

Home | Current Version | Previous Version | Graphics & Text | Print | Product List | Glossary Off
Versions: 1 2 3 4 5 6 7 8 9 10 11 12 13 14 15 16 17 18 19 20 21 22 23 24 25 26 27 28 29 30 31 32 33 34 35 36 37 38 39 40 41 42 43 44 45 46 47 48 49 50

000
ASUS43 KGRB 300659
RWRGRB

NORTH-CENTRAL AND NORTHEAST WISCONSIN REGIONAL WEATHER ROUNDUP
NATIONAL WEATHER SERVICE GREEN BAY WI
200 AM CDT SAT AUG 30 2014

WIZ005-009-010>012-018-019-300800-
NORTH CENTRAL WISCONSIN

CITY           SKY/WX    TMP DP  RH WIND       PRES   REMARKS
IRONWOOD       NOT AVBL
MANITOWISH WTR NOT AVBL
ARBOR VITAE    NOT AVBL
EAGLE RIVER    NOT AVBL
LAND O LAKES   NOT AVBL
RHINELANDER    LGT RAIN  63  63 100 S6        29.82F
PHILLIPS       NOT AVBL
ANTIGO         NOT AVBL
TOMAHAWK       NOT AVBL
MERRILL        NOT AVBL
$$

WIZ013-073-300800-
NORTHEAST WISCONSIN

CITY           SKY/WX    TMP DP  RH WIND       PRES   REMARKS
IRON MOUNTAIN  LGT RAIN  65  64  97 CALM      29.80F
MARINETTE      CLOUDY    68  64  88 N3        29.78F
$$

WIZ017-030-035>037-045-300800-
CENTRAL WISCONSIN

CITY           SKY/WX    TMP DP  RH WIND       PRES   REMARKS
MEDFORD        NOT AVBL
WAUSAU         LGT RAIN  66  65  96 SE3       29.79F FOG
MOSINEE        NOT AVBL
MARSHFIELD     LGT RAIN  66  65  96 E7        29.78F FOG
WISC RAPIDS    CLOUDY    67  66  97 CALM      29.78F
STEVENS POINT  NOT AVBL
WAUPACA        NOT AVBL
SHAWANO        HVY RAIN  69  66  92 NW3       29.80F
CLINTONVILLE   NOT AVBL
$$

WIZ038-039-048-051-300800-
FOX VALLEY

CITY           SKY/WX    TMP DP  RH WIND       PRES   REMARKS
NWS GREEN BAY  TSTM      72  71  97 NW6       29.79F FOG
APPLETON       NOT AVBL
OSHKOSH        CLOUDY    72  69  90 S9        29.78S
FOND DU LAC    CLOUDY    73  68  84 S12       29.79F
$$

WIZ022-050-052-300800-
EAST CENTRAL WISCONSIN

CITY           SKY/WX    TMP DP  RH WIND       PRES   REMARKS
STURGEON BAY   CLOUDY    70  66  88 SW5       29.80F
MANITOWOC      CLOUDY    72  70  94 SW8       29.80F
SHEBOYGAN      CLOUDY    71  69  93 S10       29.80F FOG
$$

LMZ563-521-522-541>543-300800-
LAKESHORE

STATION/POSITION TIME  TEMP    WIND        PRES    VSBY  WAVE
                       AIR SEA DIR/SP/G                  HT/PER
                 (UTC) (F)     (DEG/KT/KT) (MB)    (MI)  (FT/S)
SHEBOYGAN LKSHOR 0600   69 63  180/ 19/ 20 1009.7F
KEWAUNEE LKSHORE 0600   64     170/ 10/ 11 1008.4F
ALGOMA MARINA    0600          220/  7/  8   N/A
NORTHPORT PIER   0600   69     190/  4/ 12 1009.8F
N MID LAKE BUOY  0600   68 65  200/ 14/ 16 1009.7R         4/ 7
S GREEN BAY BUOY 0600   72     VRB  6/  6  1010.2F
SISTER BAY LKSHO 0600   70     210/  8/  9   N/A
CHAMBERS ISLAND  0600   70     150/  4/  8 1009.8F
MENOMINEE LKSHOR 0600   71     250/  3/  5 1010.2S
$$


USA.gov is the U.S. government's official web portal to all federal, state and local government web resources and services.